Miscellaneous Local Product
Issued by NWS Hastings, NE

Home | Current Version | Previous Version | Text Only | Print | Product List | Glossary On
Versions: 1 2 3 4 5 6 7 8 9 10 11 12 13 14 15 16 17 18 19 20 21 22 23 24 25 26 27 28 29 30 31 32 33 34 35 36 37 38 39 40 41 42 43 44 45 46 47 48 49 50
287
AXUS43 KGID 102102
MISGRI

GID CWA HOURLY WEATHER ROUNDUP
NATIONAL WEATHER SERVICE HASTINGS NE
300 PM CST WED FEB 10 2016

NOTE: "FAIR" INDICATES FEW OR NO CLOUDS BELOW 12,000 FEET WITH NO
SIGNIFICANT WEATHER AND/OR OBSTRUCTIONS TO VISIBILITY.

...SOUTH CENTRAL NEBRASKA...

CITY           SKY/WX    TMP DP  RH WIND       PRES   REMARKS
GRAND ISLAND   SUNNY     47  32  56 W6        29.86R
HASTINGS       SUNNY     46  32  58 W9        29.86S
KEARNEY        SUNNY     48  30  49 W10       29.88R
ORD            SUNNY     56  30  37 NW9       29.83S
YORK           SUNNY     45  36  70 W7        29.86R
AURORA         SUNNY     45  32  61 NW8       29.85S
LEXINGTON      SUNNY     48  32  52 W12       29.89F
HOLDREGE       SUNNY     50  31  48 W8        29.88F
HEBRON         SUNNY     47  33  58 W8        29.87F

...NEBRASKA PANHANDLE...

CITY           SKY/WX    TMP DP  RH WIND       PRES   REMARKS
CHADRON        SUNNY     63  25  23 NW21G33   29.94F
ALLIANCE       CLOUDY    50  31  48 NW15      29.97F
SCOTTSBLUFF    SUNNY     62  25  24 W16       30.00F
SIDNEY         CLOUDY    51  30  44 NW13      30.01F

...WESTERN AND NORTH CENTRAL NEBRASKA...

CITY           SKY/WX    TMP DP  RH WIND       PRES   REMARKS
VALENTINE      SUNNY     55  28  35 NW17      29.89R
AINSWORTH      SUNNY     57  26  30 NW23G35   29.87R
ONEILL         SUNNY     47  32  56 E9        29.83R
BROKEN BOW     SUNNY     59  31  34 NW12      29.86R
IMPERIAL       SUNNY     51  29  42 NW14G24   29.97F
NORTH PLATTE   SUNNY     51  31  46 W10       29.90S
MCCOOK         SUNNY     51  30  44 W14G23    29.94S

...EASTERN NEBRASKA...

CITY           SKY/WX    TMP DP  RH WIND       PRES   REMARKS
NORFOLK        SUNNY     36  26  67 E10       29.86F WCI  28
SO SIOUX CITY  PTSUNNY   26  19  74 E15       29.95R WCI  14
TEKAMAH        SUNNY     33  23  66 E8        29.94R WCI  26
COLUMBUS       SUNNY     37  25  60 E9        29.88S WCI  31
ALBION         SUNNY     48  31  52 CALM      29.84R
OMAHA EPPLEY   MOSUNNY   37  23  56 SE8       29.92R WCI  31
OFFUTT AFB     SUNNY     38  23  54 SE2       29.91R
MILLARD        SUNNY     37  24  57 CALM      29.91R
LINCOLN        SUNNY     41  28  60 NE6       29.89F
NEBRASKA CITY  SUNNY     44  26  48 N5        29.89S
BEATRICE       SUNNY     49  32  53 W10       29.87R
FALLS CITY     SUNNY     51  27  39 VRB3      29.87F

...NORTHERN KANSAS...

CITY           SKY/WX    TMP DP  RH WIND       PRES   REMARKS
GOODLAND       SUNNY     59  28  30 NW12      30.02F
HILL CITY      SUNNY     56  31  38 W15G22    29.94F
NORTON         CLEAR     48  28  46 W9        29.92S
PHILLIPSBURG   SUNNY     54  32  43 W14       29.91S
SMITH CENTER   SUNNY     54  34  47 W9        29.91R
BELOIT         SUNNY     59  32  36 W12G17    29.88F
HAYS           SUNNY     63  30  29 NW23      29.93S
RUSSELL        SUNNY     63  30  28 NW21      29.90F
CONCORDIA      SUNNY     56  30  37 NW12      29.87F
SALINA         SUNNY     68  27  21 NW18      29.88F
TOPEKA         SUNNY     55  25  31 SW10      29.87F



USA.gov is the U.S. government's official web portal to all federal, state and local government web resources and services.